Starlink 31022

operational
NORAD ID: 58633 Int'l Des: 2023-203 Owner: SPXS Country: US Constellation: starlink
LEOCIRCULAR

About Starlink 31022

Description loading...

Live Position

Loading 3D Globe...

Upcoming Passes

Altitude History

Altitude vs Time

uPlot chart will show altitude changes over time

Two-Line Element Set

1 58633U 23203R 25348.93308290 -.00000492 00000-0 -83627-5 0 9999
2 58633 42.9982 189.6472 0001000 274.6506 85.4231 15.27571703111788
Epoch: Dec 14, 2025 • Age: 23 hours

Current Status

Altitude 484.4 km
Velocity 7.63 km/s
Sub-Earth Point 31.05°N, 74.39°W
Launch Date Dec 23, 2023
Age 1.9 years
Type internet

Technical Details

Classification Payload
Mass 730.00 kg
Dry Mass 700.00 kg
Total Mass 730.00 kg
Length 0.30 m
Diameter 4.10 m
Span 29.00 m
Shape Box + pan
Manufacturer SPXS
Bus Type Starlink V2M
Phase Status In Orbit
Owner/State SPXS/US

Large Constellations

Loading constellations...